,,,PA_Meas_PMT16A,,PR_Meas_QMR101_102,,RH_Meas_QMH101,,SR_Meas_QMS101,,TA_Meas_QMH101,,GenWind,,GenWind,
date,time,status,PA,status,PR,status,RH,status,SR,status,TA,status,DirAvg,status,SpdAvg,
2008-12-27, 00:00:05,VALID,1002.22,VALID,0,VALID,87.0989,VALID,0,VALID,25.0469,VALID,345,VALID,0.455859,
2008-12-27, 00:01:05,VALID,1002.23,VALID,0,VALID,87.1523,VALID,0,VALID,25.0663,VALID,345,VALID,0.340234,
2008-12-27, 00:02:05,VALID,1002.22,VALID,0,VALID,87.3049,VALID,0,VALID,25.0469,VALID,345,VALID,0.470313,
2008-12-27, 00:03:05,VALID,1002.19,VALID,0,VALID,87.3583,VALID,0,VALID,25.0274,VALID,345,VALID,0.2875,
2008-12-27, 00:04:05,VALID,1002.17,VALID,0,VALID,87.5795,VALID,0,VALID,25.0098,VALID,345,VALID,0.185547,
2008-12-27, 00:05:05,VALID,1002.17,VALID,0,VALID,87.7703,VALID,0,VALID,24.9495,VALID,345,VALID,0.438672,
2008-12-27, 00:06:05,VALID,1002.16,VALID,0,VALID,87.9076,VALID,0,VALID,24.9319,VALID,346,VALID,0.479297,
2008-12-27, 00:07:05,VALID,1002.14,VALID,0,VALID,88.0068,VALID,0,VALID,24.8911,VALID,345,VALID,0.506641,
2008-12-27, 00:08:05,VALID,1002.15,VALID,0,VALID,88.1517,VALID,0,VALID,24.893,VALID,345,VALID,0.316016,
2008-12-27, 00:09:05,VALID,1002.14,VALID,0,VALID,88.2585,VALID,0,VALID,24.8735,VALID,345,VALID,0.226172,
2008-12-27, 00:10:05,VALID,1002.14,VALID,0,VALID,88.4264,VALID,0,VALID,24.8327,VALID,345,VALID,0.197656,
2008-12-27, 00:11:05,VALID,1002.13,VALID,0,VALID,88.5637,VALID,0,VALID,24.8132,VALID,345,VALID,0.305078,
2008-12-27, 00:12:05,VALID,1002.08,VALID,0,VALID,88.8307,VALID,0,VALID,24.7937,VALID,345,VALID,0.238672,
2008-12-27, 00:13:05,VALID,1002.1,VALID,0,VALID,88.8917,VALID,0,VALID,24.7353,VALID,345,VALID,0.530859,
2008-12-27, 00:14:05,VALID,1002.11,VALID,0,VALID,89.1664,VALID,0,VALID,24.7159,VALID,345,VALID,0.431641,
2008-12-27, 00:15:05,VALID,1002.12,VALID,0,VALID,89.5097,VALID,0,VALID,24.6574,VALID,345,VALID,0.509375,
2008-12-27, 00:16:05,VALID,1002.14,VALID,0,VALID,89.8072,VALID,0,VALID,24.5796,VALID,345,VALID,0.520703,
2008-12-27, 00:17:05,VALID,1002.12,VALID,0,VALID,90.0284,VALID,0,VALID,24.5212,VALID,345,VALID,0.36875,
2008-12-27, 00:18:05,VALID,1002.14,VALID,0,VALID,90.2115,VALID,0,VALID,24.4822,VALID,345,VALID,0.308203,
2008-12-27, 00:19:05,VALID,1002.1,VALID,0,VALID,90.3565,VALID,0,VALID,24.4841,VALID,345,VALID,0.0382813,
2008-12-27, 00:20:05,VALID,1002.12,VALID,0,VALID,90.4785,VALID,0,VALID,24.4628,VALID,345,VALID,0,
2008-12-27, 00:21:05,VALID,1002.08,VALID,0,VALID,90.5319,VALID,0,VALID,24.4238,VALID,345,VALID,0,
2008-12-27, 00:22:05,VALID,1002.09,VALID,0,VALID,90.715,VALID,0,VALID,24.4451,VALID,345,VALID,0.171484,
2008-12-27, 00:23:05,VALID,1002.08,VALID,0,VALID,90.8295,VALID,0,VALID,24.4257,VALID,345,VALID,0,
2008-12-27, 00:24:05,VALID,1002.05,VALID,0,VALID,90.86,VALID,0,VALID,24.4257,VALID,345,VALID,0.201562,
2008-12-27, 00:25:05,VALID,1002.05,VALID,0,VALID,90.8829,VALID,0,VALID,24.4257,VALID,345,VALID,0.445703,
2008-12-27, 00:26:05,VALID,1002.03,VALID,0,VALID,90.8523,VALID,0,VALID,24.4451,VALID,345,VALID,0.288672,
2008-12-27, 00:27:05,VALID,1002.03,VALID,0,VALID,90.7684,VALID,0,VALID,24.4433,VALID,347,VALID,0.655469,
2008-12-27, 00:28:05,VALID,1002,VALID,0,VALID,90.8676,VALID,0,VALID,24.4043,VALID,349,VALID,0.751172,
2008-12-27, 00:29:05,VALID,1001.99,VALID,0,VALID,90.9363,VALID,0,VALID,24.4043,VALID,351,VALID,0.841016,
2008-12-27, 00:30:05,VALID,1001.98,VALID,0,VALID,91.0354,VALID,0,VALID,24.3654,VALID,356,VALID,0.546484,
2008-12-27, 00:31:04,VALID,1002,VALID,0,VALID,91.0659,VALID,0,VALID,24.3654,VALID,328,VALID,0.046875,
2008-12-27, 00:32:04,VALID,1001.97,VALID,0,VALID,91.0049,VALID,0,VALID,24.3849,VALID,328,VALID,0.00078125,
2008-12-27, 00:33:04,VALID,1001.99,VALID,0,VALID,91.0125,VALID,0,VALID,24.3849,VALID,347,VALID,0.54375,
2008-12-27, 00:34:04,VALID,1002.02,VALID,0,VALID,91.0202,VALID,0,VALID,24.4238,VALID,288,VALID,0.502734,
2008-12-27, 00:35:04,VALID,1002.05,VALID,0,VALID,90.9286,VALID,0,VALID,24.4628,VALID,315,VALID,0.191016,
2008-12-27, 00:36:04,VALID,1002.06,VALID,0,VALID,90.8295,VALID,0,VALID,24.4822,VALID,338,VALID,0.233594,
2008-12-27, 00:37:04,VALID,1002.05,VALID,0,VALID,90.7303,VALID,0,VALID,24.5212,VALID,338,VALID,0.158594,
2008-12-27, 00:38:04,VALID,1002.09,VALID,0,VALID,90.5243,VALID,0,VALID,24.5601,VALID,347,VALID,0.870703,
2008-12-27, 00:39:04,VALID,1002.08,VALID,0,VALID,90.242,VALID,0,VALID,24.599,VALID,343,VALID,0.739062,
2008-12-27, 00:40:04,VALID,1002.1,VALID,0,VALID,90.0132,VALID,0,VALID,24.6574,VALID,354,VALID,0.602734,
2008-12-27, 00:41:04,VALID,1002.08,VALID,0,VALID,89.7538,VALID,0,VALID,24.7372,VALID,341,VALID,0.671875,
2008-12-27, 00:42:04,VALID,1002.07,VALID,0,VALID,89.6622,VALID,0.100563,VALID,24.7353,VALID,322,VALID,0.0457031,
2008-12-27, 00:43:04,VALID,1002.08,VALID,0,VALID,89.5554,VALID,0,VALID,24.7353,VALID,356,VALID,0.713281,
2008-12-27, 00:44:04,VALID,1002.06,VALID,0,VALID,89.441,VALID,0,VALID,24.7548,VALID,350,VALID,0.459766,
2008-12-27, 00:45:04,VALID,1002.04,VALID,0,VALID,89.3647,VALID,0,VALID,24.7548,VALID,353,VALID,0.747266,
2008-12-27, 00:46:04,INVALID,1000.03,VALID,0,VALID,89.1664,VALID,0,VALID,24.7743,VALID,355,VALID,0.986328,
2008-12-27, 00:47:04,VALID,1002.03,VALID,0,VALID,88.9527,VALID,0,VALID,24.8522,VALID,357,VALID,0.726563,
2008-12-27, 00:48:04,VALID,1002.02,VALID,0,VALID,88.6857,VALID,0.100563,VALID,24.9106,VALID,261,VALID,0.365625,
2008-12-27, 00:49:04,VALID,1002.01,VALID,0,VALID,88.6171,VALID,0,VALID,24.9106,VALID,262,VALID,0,
2008-12-27, 00:50:04,VALID,1001.98,VALID,0,VALID,88.7239,VALID,0,VALID,24.9106,VALID,262,VALID,0,
2008-12-27, 00:51:04,VALID,1001.98,VALID,0,VALID,88.7391,VALID,0,VALID,24.8911,VALID,1,VALID,0.782422,
2008-12-27, 00:52:04,VALID,1001.97,VALID,0,VALID,88.8002,VALID,0,VALID,24.9106,VALID,342,VALID,0.492188,
2008-12-27, 00:53:04,VALID,1001.96,VALID,0,VALID,88.6018,VALID,0,VALID,24.8911,VALID,342,VALID,0.373047,
2008-12-27, 00:54:04,VALID,1001.96,VALID,0,VALID,88.6934,VALID,0,VALID,24.93,VALID,342,VALID,0.336328,
2008-12-27, 00:55:04,VALID,1001.97,VALID,0,VALID,88.8612,VALID,0,VALID,24.8522,VALID,342,VALID,0.289453,
2008-12-27, 00:56:04,VALID,1001.95,VALID,0,VALID,89.0443,VALID,0,VALID,24.7937,VALID,342,VALID,0.322656,
2008-12-27, 00:57:04,VALID,1001.95,VALID,0,VALID,89.2808,VALID,0,VALID,24.7372,VALID,342,VALID,0.327344,
2008-12-27, 00:58:04,VALID,1001.95,VALID,0,VALID,89.5402,VALID,0,VALID,24.6185,VALID,342,VALID,0.271094,
2008-12-27, 00:59:04,VALID,1001.95,VALID,0,VALID,89.9445,VALID,0,VALID,24.5601,VALID,342,VALID,0.379297,
2008-12-27, 01:00:04,VALID,1001.94,VALID,0,VALID,90.2802,VALID,0,VALID,24.4804,VALID,342,VALID,0.442578,
2008-12-27, 01:01:04,VALID,1001.91,VALID,0,VALID,90.6158,VALID,0,VALID,24.4238,VALID,342,VALID,0.305469,
2008-12-27, 01:02:04,VALID,1001.88,VALID,0,VALID,90.921,VALID,0,VALID,24.3849,VALID,342,VALID,0.501172,
2008-12-27, 01:03:04,VALID,1001.86,VALID,0,VALID,91.2033,VALID,0,VALID,24.3265,VALID,342,VALID,0.401953,
2008-12-27, 01:04:04,VALID,1001.79,VALID,0,VALID,91.4398,VALID,0,VALID,24.2486,VALID,342,VALID,0.452344,
2008-12-27, 01:05:04,VALID,1001.8,VALID,0,VALID,91.6839,VALID,0,VALID,24.1902,VALID,342,VALID,0.364062,
2008-12-27, 01:06:04,VALID,1001.76,VALID,0,VALID,91.9356,VALID,0,VALID,24.1689,VALID,342,VALID,0.549609,
2008-12-27, 01:07:04,VALID,1001.75,VALID,0,VALID,92.2103,VALID,0,VALID,24.1318,VALID,342,VALID,0.472656,
2008-12-27, 01:08:04,VALID,1001.73,VALID,0,VALID,92.3323,VALID,0,VALID,24.1123,VALID,342,VALID,0.550781,
2008-12-27, 01:09:04,VALID,1001.72,VALID,0,VALID,92.462,VALID,0,VALID,24.0929,VALID,342,VALID,0.48125,
2008-12-27, 01:10:04,VALID,1001.71,VALID,0,VALID,92.5688,VALID,0,VALID,24.0734,VALID,342,VALID,0.499219,
2008-12-27, 01:11:04,VALID,1001.68,VALID,0,VALID,92.6909,VALID,0,VALID,24.0326,VALID,342,VALID,0.454297,
2008-12-27, 01:12:04,VALID,1001.65,VALID,0,VALID,92.8206,VALID,0,VALID,24.0539,VALID,342,VALID,0.405859,
2008-12-27, 01:13:04,VALID,1001.61,VALID,0,VALID,92.9045,VALID,0,VALID,24.0363,VALID,342,VALID,0.420312,
2008-12-27, 01:14:04,VALID,1001.6,VALID,0,VALID,93.0113,VALID,0,VALID,23.9955,VALID,343,VALID,0.546094,
2008-12-27, 01:15:04,VALID,1001.57,VALID,0,VALID,93.1029,VALID,0,VALID,23.9973,VALID,342,VALID,0.354297,
2008-12-27, 01:16:04,VALID,1001.53,VALID,0,VALID,93.2173,VALID,0,VALID,23.9955,VALID,342,VALID,0.449219,
2008-12-27, 01:17:04,VALID,1001.52,VALID,0,VALID,93.3165,VALID,0,VALID,23.9973,VALID,342,VALID,0.350391,
2008-12-27, 01:18:04,VALID,1001.51,VALID,0,VALID,93.3394,VALID,0,VALID,23.9371,VALID,342,VALID,0.342187,
2008-12-27, 01:19:04,VALID,1001.52,VALID,0,VALID,93.4004,VALID,0,VALID,23.9159,VALID,342,VALID,0.447656,
2008-12-27, 01:20:04,VALID,1001.53,VALID,0,VALID,93.4614,VALID,0,VALID,23.9177,VALID,342,VALID,0.482031,
2008-12-27, 01:21:04,VALID,1001.49,VALID,0,VALID,93.5072,VALID,0,VALID,23.8982,VALID,342,VALID,0.351172,
2008-12-27, 01:22:04,VALID,1001.52,VALID,0,VALID,93.6064,VALID,0,VALID,23.8982,VALID,343,VALID,0.375,
2008-12-27, 01:23:04,VALID,1001.52,VALID,0,VALID,93.675,VALID,0,VALID,23.8982,VALID,342,VALID,0.330859,
2008-12-27, 01:24:04,VALID,1001.49,VALID,0,VALID,93.6826,VALID,0,VALID,23.8787,VALID,342,VALID,0.321875,
2008-12-27, 01:25:04,VALID,1001.48,VALID,0,VALID,93.6903,VALID,0,VALID,23.8787,VALID,342,VALID,0.212891,
2008-12-27, 01:26:04,VALID,1001.47,VALID,0,VALID,93.7208,VALID,0,VALID,23.8805,VALID,342,VALID,0.392578,
2008-12-27, 01:27:04,VALID,1001.44,VALID,0,VALID,93.7513,VALID,0,VALID,23.8398,VALID,343,VALID,0.423438,
2008-12-27, 01:28:04,VALID,1001.42,VALID,0,VALID,93.8047,VALID,0,VALID,23.8398,VALID,343,VALID,0.482422,
2008-12-27, 01:29:04,VALID,1001.39,VALID,0,VALID,93.8429,VALID,0,VALID,23.8611,VALID,343,VALID,0.399219,
2008-12-27, 01:30:04,VALID,1001.41,VALID,0,VALID,93.7895,VALID,0,VALID,23.8009,VALID,342,VALID,0.285547,
2008-12-27, 01:31:04,VALID,1001.35,VALID,0,VALID,93.8429,VALID,0,VALID,23.8009,VALID,343,VALID,0.369922,
2008-12-27, 01:32:04,VALID,1001.34,VALID,0,VALID,93.9191,VALID,0,VALID,23.7814,VALID,343,VALID,0.355859,
2008-12-27, 01:33:04,VALID,1001.31,VALID,0,VALID,93.9497,VALID,0,VALID,23.7814,VALID,343,VALID,0.0195313,
2008-12-27, 01:34:04,VALID,1001.33,VALID,0,VALID,93.9725,VALID,0,VALID,23.8009,VALID,343,VALID,0,
2008-12-27, 01:35:04,VALID,1001.31,VALID,0,VALID,94.0107,VALID,0,VALID,23.7814,VALID,343,VALID,0.0273438,
2008-12-27, 01:36:04,VALID,1001.28,VALID,0,VALID,94.0107,VALID,0,VALID,23.7814,VALID,343,VALID,0.392578,
2008-12-27, 01:37:04,VALID,1001.25,VALID,0,VALID,94.0412,VALID,0,VALID,23.7814,VALID,343,VALID,0.303125,
2008-12-27, 01:38:04,VALID,1001.24,VALID,0,VALID,94.0336,VALID,0,VALID,23.7619,VALID,342,VALID,0.176563,
2008-12-27, 01:39:04,VALID,1001.23,VALID,0,VALID,94.0794,VALID,0,VALID,23.7637,VALID,343,VALID,0,
2008-12-27, 01:40:04,VALID,1001.22,VALID,0,VALID,94.1099,VALID,0,VALID,23.723,VALID,343,VALID,0.215234,
2008-12-27, 01:41:04,VALID,1001.19,VALID,0,VALID,94.1938,VALID,0,VALID,23.7425,VALID,343,VALID,0.0492188,
2008-12-27, 01:42:04,VALID,1001.19,VALID,0,VALID,94.2548,VALID,0,VALID,23.7425,VALID,343,VALID,0.00117188,
2008-12-27, 01:43:04,VALID,1001.17,VALID,0,VALID,94.2777,VALID,0,VALID,23.7619,VALID,343,VALID,0,
2008-12-27, 01:44:04,VALID,1001.14,VALID,0,VALID,94.2167,VALID,0,VALID,23.7619,VALID,343,VALID,0.194531,
2008-12-27, 01:45:04,VALID,1001.15,VALID,0,VALID,94.2548,VALID,0,VALID,23.7425,VALID,343,VALID,0.189844,
2008-12-27, 01:46:04,VALID,1001.16,VALID,0,VALID,94.2777,VALID,0,VALID,23.7425,VALID,343,VALID,0.482031,
2008-12-27, 01:47:04,VALID,1001.13,VALID,0,VALID,94.2624,VALID,0,VALID,23.723,VALID,343,VALID,0.473828,
2008-12-27, 01:48:04,VALID,1001.14,VALID,0,VALID,94.2624,VALID,0,VALID,23.7035,VALID,343,VALID,0.278125,
2008-12-27, 01:49:04,VALID,1001.16,VALID,0,VALID,94.3235,VALID,0,VALID,23.7035,VALID,343,VALID,0.232422,
2008-12-27, 01:50:04,VALID,1001.13,VALID,0,VALID,94.3616,VALID,0,VALID,23.723,VALID,343,VALID,0.143359,
2008-12-27, 01:51:04,VALID,1001.13,VALID,0,VALID,94.3769,VALID,0,VALID,23.723,VALID,343,VALID,0.212109,
2008-12-27, 01:52:04,VALID,1001.1,VALID,0,VALID,94.415,VALID,0,VALID,23.7035,VALID,343,VALID,0.0105469,
2008-12-27, 01:53:04,VALID,1001.08,VALID,0,VALID,94.4303,VALID,0,VALID,23.723,VALID,343,VALID,0.0914062,
2008-12-27, 01:54:04,VALID,1001.1,VALID,0,VALID,94.4761,VALID,0,VALID,23.723,VALID,343,VALID,0.128906,
2008-12-27, 01:55:04,VALID,1001.08,VALID,0,VALID,94.4608,VALID,0,VALID,23.7425,VALID,343,VALID,0,
2008-12-27, 01:56:04,VALID,1001.06,VALID,0,VALID,94.4608,VALID,0,VALID,23.723,VALID,343,VALID,0,
2008-12-27, 01:57:04,VALID,1001.06,VALID,0,VALID,94.5676,VALID,0,VALID,23.7425,VALID,343,VALID,0.003125,
2008-12-27, 01:58:04,VALID,1001.07,VALID,0,VALID,94.5905,VALID,0,VALID,23.7619,VALID,342,VALID,0.0277344,
2008-12-27, 01:59:04,VALID,1001.06,VALID,0,VALID,94.6057,VALID,0,VALID,23.7619,VALID,343,VALID,0.219531,
2008-12-27, 02:00:04,VALID,1001.06,VALID,0,VALID,94.6057,VALID,0,VALID,23.7407,VALID,343,VALID,0.0851562,
2008-12-27, 02:01:04,VALID,1001.09,VALID,0,VALID,94.5905,VALID,0,VALID,23.7814,VALID,343,VALID,0,
2008-12-27, 02:02:04,VALID,1001.11,VALID,0,VALID,94.6057,VALID,0,VALID,23.7796,VALID,343,VALID,0,
2008-12-27, 02:03:04,VALID,1001.1,VALID,0,VALID,94.5371,VALID,0,VALID,23.7619,VALID,343,VALID,0.00117188,
2008-12-27, 02:04:04,VALID,1001.1,VALID,0,VALID,94.4684,VALID,0,VALID,23.7425,VALID,343,VALID,0,
2008-12-27, 02:05:04,VALID,1001.16,VALID,0,VALID,94.4989,VALID,0,VALID,23.7425,VALID,343,VALID,0,
2008-12-27, 02:06:04,VALID,1001.14,VALID,0,VALID,94.5829,VALID,0,VALID,23.7619,VALID,343,VALID,0.179688,
2008-12-27, 02:07:04,VALID,1001.14,VALID,0,VALID,94.5447,VALID,0,VALID,23.7619,VALID,343,VALID,0.188672,
2008-12-27, 02:08:04,VALID,1001.12,VALID,0,VALID,94.5218,VALID,0,VALID,23.723,VALID,343,VALID,0.139062,
2008-12-27, 02:09:04,VALID,1001.17,VALID,0,VALID,94.6057,VALID,0,VALID,23.723,VALID,343,VALID,0.18125,
2008-12-27, 02:10:04,VALID,1001.16,VALID,0,VALID,94.5829,VALID,0,VALID,23.7443,VALID,343,VALID,0.0078125,
2008-12-27, 02:11:04,VALID,1001.15,VALID,0,VALID,94.5676,VALID,0,VALID,23.723,VALID,343,VALID,0.00585938,
2008-12-27, 02:12:04,VALID,1001.16,VALID,0,VALID,94.5371,VALID,0,VALID,23.7035,VALID,343,VALID,0,
2008-12-27, 02:13:04,VALID,1001.15,VALID,0,VALID,94.5447,VALID,0,VALID,23.6841,VALID,343,VALID,0,
2008-12-27, 02:14:04,VALID,1001.15,VALID,0,VALID,94.5752,VALID,0,VALID,23.6841,VALID,343,VALID,0,
2008-12-27, 02:15:04,VALID,1001.17,VALID,0,VALID,94.6363,VALID,0,VALID,23.7053,VALID,343,VALID,0.147656,
2008-12-27, 02:16:04,VALID,1001.18,VALID,0,VALID,94.682,VALID,0,VALID,23.723,VALID,343,VALID,0.0957031,
2008-12-27, 02:17:04,VALID,1001.21,VALID,0,VALID,94.7125,VALID,0.100563,VALID,23.7425,VALID,343,VALID,0.00585938,
2008-12-27, 02:18:04,VALID,1001.19,VALID,0,VALID,94.7125,VALID,0,VALID,23.7425,VALID,343,VALID,0,
2008-12-27, 02:19:04,VALID,1001.29,VALID,0,VALID,94.7812,VALID,0,VALID,23.7637,VALID,323,VALID,0.197656,
2008-12-27, 02:20:04,VALID,1001.46,VALID,0,VALID,94.888,VALID,0,VALID,23.8203,VALID,200,VALID,2.20547,
2008-12-27, 02:21:04,VALID,1001.38,VALID,0,VALID,94.9948,VALID,0,VALID,23.8769,VALID,178,VALID,1.03867,
2008-12-27, 02:22:04,VALID,1001.41,VALID,0,VALID,95.1169,VALID,0,VALID,23.9937,VALID,214,VALID,2.08477,
2008-12-27, 02:23:04,VALID,1001.42,VALID,0,VALID,95.155,VALID,0,VALID,24.1513,VALID,194,VALID,1.77617,
2008-12-27, 02:24:04,VALID,1001.4,VALID,0,VALID,95.1321,VALID,0,VALID,24.2875,VALID,165,VALID,1.15117,
2008-12-27, 02:25:04,VALID,1001.37,VALID,0,VALID,95.0253,VALID,0,VALID,24.4238,VALID,186,VALID,1.94102,
2008-12-27, 02:26:04,VALID,1001.33,VALID,0,VALID,94.9414,VALID,0,VALID,24.5406,VALID,196,VALID,0.743359,
2008-12-27, 02:27:04,VALID,1001.34,VALID,0,VALID,94.8575,VALID,0,VALID,24.6574,VALID,197,VALID,1.11133,
2008-12-27, 02:28:04,VALID,1001.33,VALID,0,VALID,94.6897,VALID,0,VALID,24.7353,VALID,181,VALID,0.912109,
2008-12-27, 02:29:04,VALID,1001.32,VALID,0,VALID,94.5676,VALID,0,VALID,24.7743,VALID,336,VALID,1.04727,
2008-12-27, 02:30:04,VALID,1001.28,VALID,0,VALID,94.4532,VALID,0,VALID,24.8151,VALID,196,VALID,1.4957,
2008-12-27, 02:31:04,VALID,1001.31,VALID,0,VALID,94.2701,VALID,0,VALID,24.8151,VALID,212,VALID,0.838672,
2008-12-27, 02:32:04,VALID,1001.3,VALID,0,VALID,94.0641,VALID,0,VALID,24.7724,VALID,206,VALID,0.853125,
2008-12-27, 02:33:04,VALID,1001.29,VALID,0,VALID,93.6674,VALID,0,VALID,24.7567,VALID,190,VALID,2.59258,
2008-12-27, 02:34:04,VALID,1001.34,VALID,0,VALID,93.408,VALID,0,VALID,24.7548,VALID,202,VALID,1.66992,
2008-12-27, 02:35:04,VALID,1001.31,VALID,0,VALID,93.1105,VALID,0,VALID,24.7548,VALID,185,VALID,2.33281,
2008-12-27, 02:36:04,VALID,1001.36,VALID,0,VALID,93.0342,VALID,0,VALID,24.7743,VALID,196,VALID,2.9332,
2008-12-27, 02:37:04,VALID,1001.3,VALID,0,VALID,92.8969,VALID,0,VALID,24.8151,VALID,192,VALID,2.64961,
2008-12-27, 02:38:04,VALID,1001.31,VALID,0,VALID,92.813,VALID,0,VALID,24.8327,VALID,227,VALID,1.70273,
2008-12-27, 02:39:04,VALID,1001.31,VALID,0,VALID,92.6985,VALID,0,VALID,24.8522,VALID,189,VALID,2.04219,
2008-12-27, 02:40:04,VALID,1001.33,VALID,0,VALID,92.6146,VALID,0,VALID,24.8522,VALID,189,VALID,1.69766,
2008-12-27, 02:41:04,VALID,1001.29,VALID,0,VALID,92.3095,VALID,0,VALID,24.8522,VALID,215,VALID,2.42461,
2008-12-27, 02:42:04,VALID,1001.3,VALID,0,VALID,92.0501,VALID,0,VALID,24.8327,VALID,225,VALID,2.37031,
2008-12-27, 02:43:04,VALID,1001.25,VALID,0,VALID,92.0424,VALID,0,VALID,24.8327,VALID,186,VALID,0.607813,
2008-12-27, 02:44:04,VALID,1001.27,VALID,0,VALID,92.0958,VALID,0,VALID,24.854,VALID,208,VALID,1.93555,
2008-12-27, 02:45:04,VALID,1001.3,VALID,0,VALID,92.195,VALID,0,VALID,24.8327,VALID,195,VALID,1.99258,
2008-12-27, 02:46:04,VALID,1001.29,VALID,0,VALID,92.2789,VALID,0,VALID,24.8522,VALID,165,VALID,1.60039,
2008-12-27, 02:47:04,VALID,1001.33,VALID,0,VALID,92.2332,VALID,0,VALID,24.8522,VALID,170,VALID,2.28437,
2008-12-27, 02:48:04,VALID,1001.33,VALID,0,VALID,92.1569,VALID,0,VALID,24.854,VALID,190,VALID,1.3,
2008-12-27, 02:49:04,VALID,1001.35,VALID,0,VALID,92.2027,VALID,0,VALID,24.8327,VALID,242,VALID,1.15078,
2008-12-27, 02:50:04,VALID,1001.33,VALID,0,VALID,92.2713,VALID,0,VALID,24.8327,VALID,124,VALID,0.598047,
2008-12-27, 02:51:04,VALID,1001.34,VALID,0,VALID,92.1416,VALID,0,VALID,24.8327,VALID,205,VALID,2.50117,
2008-12-27, 02:52:04,VALID,1001.35,VALID,0,VALID,92.0348,VALID,0,VALID,24.8132,VALID,206,VALID,2.07344,
2008-12-27, 02:53:04,VALID,1001.37,VALID,0,VALID,92.1187,VALID,0,VALID,24.7937,VALID,203,VALID,1.68086,
2008-12-27, 02:54:04,VALID,1001.31,VALID,0,VALID,92.0196,VALID,0,VALID,24.7743,VALID,240,VALID,1.49922,
2008-12-27, 02:55:04,VALID,1001.33,VALID,0,VALID,91.9128,VALID,0,VALID,24.7548,VALID,198,VALID,1.98867,
2008-12-27, 02:56:04,VALID,1001.28,VALID,0,VALID,91.6763,VALID,0,VALID,24.7353,VALID,193,VALID,2.96367,
2008-12-27, 02:57:04,VALID,1001.26,VALID,0,VALID,91.4169,VALID,0,VALID,24.7159,VALID,235,VALID,2.21367,
2008-12-27, 02:58:04,VALID,1001.25,VALID,0,VALID,91.3482,VALID,0,VALID,24.7177,VALID,184,VALID,1.82539,
2008-12-27, 02:59:04,VALID,1001.24,VALID,0,VALID,91.3253,VALID,0,VALID,24.7159,VALID,170,VALID,1.05938,
2008-12-27, 03:00:04,VALID,1001.23,VALID,0,VALID,91.3177,VALID,0,VALID,24.7177,VALID,194,VALID,2.55039,
2008-12-27, 03:01:04,VALID,1001.2,VALID,0,VALID,91.455,VALID,0,VALID,24.6964,VALID,183,VALID,1.41914,
2008-12-27, 03:02:04,VALID,1001.22,VALID,0,VALID,91.5313,VALID,0,VALID,24.6964,VALID,174,VALID,0.905078,
2008-12-27, 03:03:04,VALID,1001.25,VALID,0,VALID,91.5923,VALID,0,VALID,24.6964,VALID,216,VALID,1.87188,
2008-12-27, 03:04:04,VALID,1001.28,VALID,0,VALID,91.6763,VALID,0,VALID,24.6964,VALID,201,VALID,1.15781,
2008-12-27, 03:05:04,VALID,1001.31,VALID,0,VALID,91.4474,VALID,0,VALID,24.6769,VALID,238,VALID,1.80664,
2008-12-27, 03:06:04,VALID,1001.31,VALID,0,VALID,91.2567,VALID,0,VALID,24.6574,VALID,217,VALID,1.15937,
2008-12-27, 03:07:04,VALID,1001.26,VALID,0,VALID,91.1651,VALID,0,VALID,24.6788,VALID,154,VALID,0.728906,
2008-12-27, 03:08:04,VALID,1001.28,VALID,0,VALID,91.1575,VALID,0,VALID,24.6983,VALID,255,VALID,0.753516,
2008-12-27, 03:09:04,VALID,1001.29,VALID,0,VALID,90.6311,VALID,0,VALID,24.6185,VALID,183,VALID,0.442187,
2008-12-27, 03:10:04,VALID,1001.25,VALID,0,VALID,90.242,VALID,0,VALID,24.599,VALID,267,VALID,0.635547,
2008-12-27, 03:11:04,VALID,1001.24,VALID,0,VALID,90.2649,VALID,0,VALID,24.6185,VALID,224,VALID,0.730078,
2008-12-27, 03:12:04,VALID,1001.22,VALID,0,VALID,90.2573,VALID,0,VALID,24.638,VALID,201,VALID,0.546484,
2008-12-27, 03:13:04,VALID,1001.19,VALID,0,VALID,90.0971,VALID,0,VALID,24.6185,VALID,297,VALID,1.4832,
2008-12-27, 03:14:04,VALID,1001.18,VALID,0,VALID,90.2497,VALID,0,VALID,24.638,VALID,221,VALID,1.28281,
2008-12-27, 03:15:04,VALID,1001.22,VALID,0,VALID,90.4099,VALID,0,VALID,24.638,VALID,108,VALID,0.910937,
2008-12-27, 03:16:04,VALID,1001.18,VALID,0,VALID,90.5701,VALID,0,VALID,24.638,VALID,289,VALID,0.912109,
2008-12-27, 03:17:04,VALID,1001.19,VALID,0,VALID,90.7455,VALID,0,VALID,24.6593,VALID,201,VALID,0.896484,
2008-12-27, 03:18:04,VALID,1001.21,VALID,0,VALID,90.9897,VALID,0,VALID,24.6398,VALID,34,VALID,0.357031,
2008-12-27, 03:19:04,VALID,1001.18,VALID,0,VALID,90.8752,VALID,0,VALID,24.6204,VALID,302,VALID,1.60234,
2008-12-27, 03:20:04,VALID,1001.22,VALID,0,VALID,91.0125,VALID,0,VALID,24.5814,VALID,215,VALID,0.392188,
2008-12-27, 03:21:04,VALID,1001.24,VALID,0,VALID,90.9897,VALID,0,VALID,24.5601,VALID,354,VALID,0.239063,
2008-12-27, 03:22:04,VALID,1001.27,VALID,0,VALID,91.1041,VALID,0,VALID,24.5406,VALID,58,VALID,0.428516,
2008-12-27, 03:23:04,VALID,1001.3,VALID,0,VALID,90.9591,VALID,0,VALID,24.5212,VALID,181,VALID,1.30156,
2008-12-27, 03:24:04,VALID,1001.3,VALID,0,VALID,90.8295,VALID,0,VALID,24.5035,VALID,216,VALID,1.13555,
2008-12-27, 03:25:04,VALID,1001.28,VALID,0,VALID,90.86,VALID,0,VALID,24.4822,VALID,204,VALID,1.36367,
2008-12-27, 03:26:04,VALID,1001.32,VALID,0,VALID,91.0278,VALID,0,VALID,24.4646,VALID,198,VALID,0.385156,
2008-12-27, 03:27:04,VALID,1001.33,VALID,0,VALID,91.1956,VALID,0,VALID,24.4646,VALID,140,VALID,0.283203,
2008-12-27, 03:28:04,VALID,1001.35,VALID,0,VALID,91.3101,VALID,0,VALID,24.4257,VALID,34,VALID,0.491406,
2008-12-27, 03:29:04,VALID,1001.36,VALID,0,VALID,91.4932,VALID,0,VALID,24.4257,VALID,347,VALID,0.189844,
2008-12-27, 03:30:04,VALID,1001.37,VALID,0,VALID,91.6763,VALID,0,VALID,24.3849,VALID,196,VALID,0.305078,
2008-12-27, 03:31:04,VALID,1001.39,VALID,0,VALID,91.8365,VALID,0,VALID,24.3867,VALID,197,VALID,0.05625,
2008-12-27, 03:32:04,VALID,1001.41,VALID,0,VALID,91.989,VALID,0,VALID,24.3654,VALID,278,VALID,0.857813,
2008-12-27, 03:33:04,VALID,1001.44,VALID,0,VALID,92.1187,VALID,0,VALID,24.3459,VALID,240,VALID,0.464453,
2008-12-27, 03:34:04,VALID,1001.45,VALID,0,VALID,92.0882,VALID,0,VALID,24.307,VALID,273,VALID,1.0125,
2008-12-27, 03:35:04,VALID,1001.5,VALID,0,VALID,92.0043,VALID,0,VALID,24.2681,VALID,298,VALID,1.02578,
2008-12-27, 03:36:04,VALID,1001.53,VALID,0,VALID,92.1187,VALID,0,VALID,24.2699,VALID,11,VALID,0.638672,
2008-12-27, 03:37:04,VALID,1001.55,VALID,0,VALID,92.1798,VALID,0,VALID,24.2097,VALID,305,VALID,1.06055,
2008-12-27, 03:38:04,VALID,1001.54,VALID,0,VALID,92.2789,VALID,0,VALID,24.2097,VALID,264,VALID,1.18242,
2008-12-27, 03:39:04,VALID,1001.58,VALID,0,VALID,92.401,VALID,0,VALID,24.2115,VALID,286,VALID,0.363672,
2008-12-27, 03:40:04,VALID,1001.57,VALID,0,VALID,92.4773,VALID,0,VALID,24.1902,VALID,312,VALID,0.408984,
2008-12-27, 03:41:04,VALID,1001.58,VALID,0,VALID,92.5231,VALID,0,VALID,24.2115,VALID,216,VALID,0.282813,
2008-12-27, 03:42:04,VALID,1001.2,VALID,0,VALID,92.5231,VALID,0,VALID,24.192,VALID,173,VALID,0.530859,
2008-12-27, 03:43:04,VALID,1001.56,VALID,0,VALID,92.2713,VALID,0,VALID,24.1513,VALID,248,VALID,0.809375,
2008-12-27, 03:44:04,VALID,1001.58,VALID,0,VALID,92.3629,VALID,0,VALID,24.1531,VALID,3,VALID,0.297656,
2008-12-27, 03:45:04,VALID,1001.56,VALID,0,VALID,92.2484,VALID,0,VALID,24.1318,VALID,153,VALID,0.416016,